Home   Weather   São Paulo   Past weeks
Flag for Brazil

Past Weather in São Paulo, São Paulo, Brazil — Yesterday and Last 2 Weeks

Now
66 °F

Passing clouds.


Feels Like: 66 °F
Forecast: 69 / 57 °F
Wind: 5 mph from Southeast

Location: Sao Paulo Airport

Current Time: May 24, 2019 at 12:09:04 am

Latest Report: May 23, 2019 at 11:03 pm


Visibility: N/A

Pressure: 30.07 "Hg (27.50 "Hg at 765m altitude)

Humidity: 78%

Dew Point: 59 °F

Location of São PauloLocation

Past Weather in São Paulo — Graph

°F

São Paulo Temperature Yesterday

Maximum temperature yesterday: 79 °F (at 1:00 pm)
Minimum temperature yesterday: 61 °F (at 5:00 am)
Average temperature yesterday: 69 °F

High & Low Weather Summary for the Past Weeks

 TemperatureHumidityPressure
High82 °F (May 11, 2:00 pm)100% (May 18, 10:22 am)30.24 "Hg (May 18, 10:22 am)
Low45 °F (May 18, 10:22 am)34% (May 18, 10:00 am)29.98 "Hg (May 10, 2:00 pm)
Average67 °F79%30.12 "Hg
* Reported May 8 11:00 pm — May 23 11:00 pm, São Paulo. Weather by CustomWeather, © 2019

Note: Actual official high and low records may vary slightly from our data, if they occured in-between our weather recording intervals... More about our weather records

Advertising

São Paulo Weather History for the Previous 24 Hours

Scroll right to see more
 ConditionsComfort  
Time TempWeatherWind HumidityBarometerVisibility
11:00 pm
Thu, May 23
66 °FPassing clouds.6 mph83%30.07 "HgN/A
10:00 pm64 °FOvercast.9 mph88%30.09 "Hg6 mi
9:00 pm66 °FPassing clouds.10 mph83%30.07 "Hg5 mi
8:00 pm68 °FClear.7 mph78%30.07 "Hg10 mi
7:00 pm68 °FClear.8 mph83%30.04 "Hg10 mi
6:00 pm75 °FPassing clouds.5 mph39%30.04 "HgN/A
5:00 pm77 °FSunny.6 mph34%30.01 "Hg10 mi
4:00 pm77 °FPassing clouds.6 mph36%30.01 "HgN/A
3:00 pm79 °FPassing clouds.7 mph34%30.01 "HgN/A
2:00 pm79 °FPassing clouds.8 mph37%30.01 "HgN/A
1:00 pm79 °FPassing clouds.6 mph37%30.04 "HgN/A
12:00 pm77 °FPassing clouds.9 mph42%30.09 "HgN/A
11:00 am73 °FPassing clouds.8 mph47%30.09 "HgN/A
10:00 am72 °FSunny.8 mph53%30.12 "Hg10 mi
9:00 am68 °FSunny.3 mph64%30.09 "Hg10 mi
8:00 am64 °FSunny.2 mph73%30.09 "Hg10 mi
7:00 am61 °FSunny.2 mph77%30.07 "Hg10 mi
6:00 am63 °FClear.3 mph77%30.07 "Hg10 mi
5:00 am61 °FClear.5 mph77%30.04 "Hg10 mi
4:00 am63 °FClear.2 mph77%30.04 "Hg10 mi
3:00 am63 °FClear.2 mph77%30.04 "Hg10 mi
2:00 am64 °FClear.2 mph73%30.07 "Hg10 mi
1:00 am64 °FClear.5 mph78%30.07 "Hg10 mi
12:00 am66 °FClear.3 mph73%30.07 "Hg10 mi
Weather by CustomWeather, © 2019

See weather overview